STARLINK-32280, 60736

Orbit data source: Space-Track

STARLINK-32280, 60736 is a payload satellite owned by SpaceX/Seattle (US) in LEO that was launched on Wed, 28 Aug 2024 UTC via an FALCON 9 launch vehicle from the Air Force Eastern Test Range (AFETR). Payload-class satellites include a variety of spacecraft equipped with specific instruments for various scientific and technological missions. These include communications satellites like Starlink; space stations such as the ISS; scientific satellites like the Hubble; Earth observation satellites from companies like Planet Labs, Umbra, and HawkEye 360; GPS; miniature CubeSats for education and research; and military/defense satellites.

Loading next visibility...
Identifier
60736, 2024-152S
Orbit
LEO
Country
Flag of USUS
Related business
Manufacturer
SpaceX/Seattle
Mission
Partially operational Commercial Communications
Bus & Motor
STARLINK V2M, Unknown motor
Mass
730 kg wet, ~700 kg dry
Launch date (UTC)
2024-08-28 (1 year ago)
Launch vehicle
FALCON 9
Launch site
Air Force Eastern Test Range (AFETR)
Object type
Payload
Rocket body
Debris
Shape & HBR
Box + 2 Pan, 14.5 m
Radar Cross Section
36.964 m², Large (>1 m²)

Expand to show TLE details & history
Last TLE update: 18 hours ago

TLE from 18 hours ago
0 STARLINK-32280
1 60736U 24152S   25257.58335648  .00084713  00000-0  14754-2 0  9995
2 60736  53.1515   2.1942 0013080 334.0563 167.5575 15.49968260  5896
Epoch: 2025-09-14T14:00Z
TLE epoch observation values (Epoch: 2025-09-14T14:00:01.999Z)
Latitude
29.86517°
Longitude
-46.9509°
Altitude
427.175 km
Speed
7.654 km/s
True Right ascension
10h 27m 25s
True Declination
29° 42' 35"
Sunlit
Object was in daylight at epoch
Visualization orbit readout
Latitude
Unknown
Longitude
Unknown
Altitude
Unknown
Speed
Unknown
Apparent Right ascension
Unknown
Apparent Declination
Unknown
Sunlit
N/A
Visualization observer readout
Local Sidereal Time
00:17:42
Azimuth
Unknown
Elevation
Unknown
Doppler factor
Unknown
Orbital elements
Apogee altitude
425.967 km
Perigee altitude
408.191 km
Semi-major axis
6,795.216 km
Eccentricity
0.00131
Inclination
53.1515°
RAAN
2.1942°
Arg. of periapsis
334.0563°
True anomaly
167.58974°
Mean anomaly
167.5575°
Eccentric anomaly
167.57363°
Mean motion
3.8747 °/min
Orbital period
92.91 mins
BSTAR
0.0014754
Loading maneuver chart data...
Computing Atmospheric mass density...
Loading historical data...
Loading historical data...
Loading historical data...
Loading historical data...
Loading historical data...
Loading historical data...
Loading historical data...

Documentation

Showing up to 5 results
|